{"data":{"norad_id":65653,"epoch":"2026-09-20T13:40:56.608896Z","epoch_age_seconds":102701,"freshness":"FRESH","line1":"1 65653U 25211B   26263.57009964  .00014785  00000+0  45915-3 0  9996","line2":"2 65653  97.2848 303.7901 0000985 203.8182 156.3015 15.33461662 56531","mean_motion":15.33461662,"eccentricity":9.85e-5,"inclination_deg":97.2848,"raan_deg":303.7901,"arg_perigee_deg":203.8182,"mean_anomaly_deg":156.3015,"bstar":0.00045915,"rev_number":5653,"period_min":93.905184308416,"perigee_km":464.81950292357,"apogee_km":466.16769815188,"semimajor_km":6843.6306005377,"source":"CELESTRAK","updated_at":"2026-09-21T09:00:35.678987Z"}}